Massena, NY

1:58 AM EDT on April 24, 2018 (GMT -0400)
Massena International-Richards

Weather History for KMSS - October, 2012

Change the Weather History Date:

Sunday, October 7, 2012

  Actual Average Record
Temperature  
Mean Temperature 46 °F 50 °F  
Max Temperature 53 °F 60 °F 82 °F (1955)
Min Temperature 38 °F 39 °F 21 °F (1964)
Degree Days  
Heating Degree Days 19 16  
Month to date heating degree days 54 101  
Since 1 July heating degree days 271 401  
Cooling Degree Days 0 0  
Month to date cooling degree days 0 0  
Year to date cooling degree days 537 361  
Moisture  
Dew Point 36 °F    
Average Humidity 69    
Maximum Humidity 92    
Minimum Humidity 46    
Precipitation  
Precipitation T in 0.11 in 2.08 in (2005)
Month to date precipitation 1.07 0.77  
Year to date precipitation 23.59 26.96  
Sea Level Pressure  
Sea Level Pressure 30.04 in    
Wind  
Wind Speed 4 mph (WSW)    
Max Wind Speed 14 mph    
Max Gust Speed 17 mph    
Visibility 10 miles    
Events Rain    
T = Trace of Precipitation, MM = Missing Value Source: NWS Daily Summary

Daily Weather History Graph

Daily Weather History Graph

Search for Another Location

Airport or City:

Astronomy

Oct. 07, 2012 Rise Set
Actual Time 7:05 AM EDT 6:27 PM EDT
Civil Twilight 6:36 AM EDT 6:57 PM EDT
Nautical Twilight 6:02 AM EDT 7:31 PM EDT
Astronomical Twilight 5:27 AM EDT 8:05 PM EDT
Moon 11:27 PM EDT (10/7) 1:51 PM EDT (10/7)
Length of Visible Light 12h 21m
Length of Day
11h 22m
Waning Gibbous, 56% of the Moon is Illuminated
Oct 7
Waning Gibbous
Oct 8
Last Quarter
Oct 15
New
Oct 21
First Quarter
Oct 29
Full

Hourly Weather History & Observations

Time (EDT) Temp. Windchill Dew Point Humidity Pressure Visibility Wind Dir Wind Speed Gust Speed Precip Events Conditions
12:53 AM 46.0 °F 41.0 °F 37.9 °F 73% 29.95 in 10.0 mi WSW 10.4 mph - N/A   Partly Cloudy
1:46 AM 42.8 °F 38.6 °F 37.4 °F 81% 29.96 in 10.0 mi SW 6.9 mph - N/A   Mostly Cloudy
1:53 AM 43.0 °F 39.5 °F 37.9 °F 82% 29.97 in 10.0 mi SW 5.8 mph - N/A   Mostly Cloudy
2:08 AM 41.0 °F 37.1 °F 37.4 °F 87% 29.96 in 10.0 mi SW 5.8 mph - N/A   Scattered Clouds
2:53 AM 39.9 °F 36.7 °F 37.0 °F 89% 29.98 in 10.0 mi SW 4.6 mph - N/A   Partly Cloudy
3:53 AM 39.9 °F 36.7 °F 37.0 °F 89% 29.99 in 10.0 mi West 4.6 mph - N/A   Scattered Clouds
4:37 AM 42.8 °F 38.0 °F 39.2 °F 87% 30.01 in 10.0 mi SW 8.1 mph - N/A   Overcast
4:53 AM 43.0 °F 39.5 °F 39.9 °F 89% 30.03 in 10.0 mi SW 5.8 mph - N/A   Overcast
5:23 AM 42.8 °F 39.3 °F 39.2 °F 87% 30.03 in 10.0 mi WSW 5.8 mph - 0.00 in   Overcast
5:48 AM 44.6 °F 40.2 °F 37.4 °F 76% 30.03 in 10.0 mi West 8.1 mph - 0.00 in   Overcast
5:53 AM 44.1 °F 39.5 °F 37.9 °F 79% 30.04 in 10.0 mi West 8.1 mph - 0.00 in   Overcast
6:02 AM 42.8 °F 38.6 °F 37.4 °F 81% 30.04 in 10.0 mi West 6.9 mph - 0.00 in Rain Light Rain
6:30 AM 42.8 °F 40.1 °F 39.2 °F 87% 30.04 in 10.0 mi West 4.6 mph - 0.00 in   Overcast
6:53 AM 43.0 °F 38.8 °F 39.0 °F 86% 30.06 in 10.0 mi WSW 6.9 mph - 0.00 in   Overcast
7:20 AM 39.2 °F 35.0 °F 35.6 °F 87% 30.06 in 10.0 mi WNW 5.8 mph - N/A   Overcast
7:53 AM 39.0 °F 34.8 °F 35.1 °F 86% 30.07 in 10.0 mi WSW 5.8 mph - N/A   Mostly Cloudy
8:53 AM 42.1 °F 37.7 °F 36.0 °F 79% 30.07 in 10.0 mi West 6.9 mph - N/A   Clear
9:41 AM 42.8 °F 38.6 °F 35.6 °F 76% 30.06 in 10.0 mi Variable 6.9 mph - N/A   Mostly Cloudy
9:50 AM 42.8 °F 41.1 °F 35.6 °F 76% 30.07 in 10.0 mi NW 3.5 mph - N/A   Scattered Clouds
9:53 AM 43.0 °F 39.5 °F 35.1 °F 74% 30.08 in 10.0 mi WSW 5.8 mph - N/A   Mostly Cloudy
10:53 AM 45.0 °F 40.1 °F 34.0 °F 65% 30.09 in 10.0 mi West 9.2 mph - N/A   Mostly Cloudy
11:35 AM 46.4 °F 42.4 °F 33.8 °F 62% 30.08 in 10.0 mi West 8.1 mph 17.3 mph N/A   Scattered Clouds
11:53 AM 45.0 °F 41.8 °F 33.1 °F 63% 30.10 in 10.0 mi Variable 5.8 mph - N/A   Partly Cloudy
12:53 PM 48.9 °F - 33.1 °F 54% 30.09 in 10.0 mi Calm Calm - N/A   Scattered Clouds
1:53 PM 50.0 °F - 32.0 °F 50% 30.07 in 10.0 mi WSW 11.5 mph - N/A   Clear
2:53 PM 51.1 °F - 32.0 °F 48% 30.05 in 10.0 mi WSW 9.2 mph - N/A   Clear
3:53 PM 50.0 °F - 30.9 °F 48% 30.04 in 10.0 mi NW 4.6 mph - N/A   Clear
4:53 PM 50.0 °F - 32.0 °F 50% 30.03 in 10.0 mi Calm Calm - N/A   Clear
5:53 PM 48.9 °F - 33.1 °F 54% 30.04 in 10.0 mi West 3.5 mph - N/A   Overcast
6:53 PM 46.9 °F - 36.0 °F 66% 30.04 in 10.0 mi Calm Calm - N/A   Overcast
7:53 PM 46.9 °F - 36.0 °F 66% 30.05 in 10.0 mi Calm Calm - N/A   Overcast
8:53 PM 45.0 °F - 39.0 °F 80% 30.07 in 10.0 mi Calm Calm - N/A   Overcast
9:53 PM 46.0 °F - 36.0 °F 68% 30.08 in 10.0 mi Calm Calm - N/A   Overcast
10:53 PM 45.0 °F - 39.9 °F 82% 30.09 in 10.0 mi Calm Calm - 0.00 in Rain Light Rain
11:38 PM 44.6 °F 43.1 °F 41.0 °F 87% 30.08 in 10.0 mi WSW 3.5 mph - 0.00 in Rain Light Rain
11:53 PM 44.1 °F - 41.0 °F 89% 30.09 in 10.0 mi Calm Calm - 0.00 in Rain Light Rain